Main page
METAR-TAF:

METAR-TAF

Airports :

Piacenza, Italy

Piacenza Air Base

latitude: 44-55N, longitude: 009-44E, elevation: 134 m

Current weather observation

The report was made 10 hours and 27 minutes ago, at 17:55 UTC
Wind 4 kt from the Southeast
Temperature 23°C
Humidity 94%
Pressure 1008 hPa
Visibility 10 km or more
no clouds below 1500 m and no cumulonimbus

METAR: LIMS 261755Z 14004KT CAVOK 23/22 Q1008 RMK SCT SCT200 VIS MIN 9999 WIND THR30 12003KT BLU

Time: 06:22 (04:22 UTC)


TAF: missing

Weather observations and forecasts of more than 4000 airports (METAR and TAF reports).

The available stations are represented by yellow and red dots on the map.

Hover mouse over dot to see the name of the station.

Then click to see weather observations and forecasts.

To change the map : click on the green buttons with a black cross to zoom in, on the green button with a dash to zoom out, or on the green arrows for adjacent maps.


METAR-TAF: